Regional Weather Roundup
Issued by NWS

Home | Current Version | Previous Version | Text Only | Print | Product List | Glossary Off
Versions: 1 2 3 4 5 6 7 8 9 10 11 12 13 14 15 16 17 18 19 20 21 22 23 24 25 26 27 28 29 30 31 32 33 34 35 36 37 38 39 40 41 42 43 44 45 46 47 48 49 50

000
ASUS43 KFSD 310010
RWRSD

WEATHER ROUNDUP FOR SOUTH DAKOTA
NATIONAL WEATHER SERVICE SIOUX FALLS SD
700 PM CDT SUN AUG 30 2015

NOTE: "FAIR" INDICATES FEW OR NO CLOUDS BELOW 12,000 FEET WITH NO
SIGNIFICANT WEATHER AND/OR OBSTRUCTIONS TO VISIBILITY.


SDZ001>005-009-010-012>017-310100-
NORTHWEST AND NORTH CENTRAL SOUTH DAKOTA

CITY           SKY/WX    TMP DP  RH WIND       PRES   REMARKS
BUFFALO          N/A     84  54  35 N14       29.69F
FAITH            N/A     89  61  38 S5        29.71S
MOBRIDGE       SUNNY     89  61  38 SE13      29.63F HAZE
$$

SDZ012>016-024>037-041>051-057-063-072>074-310100-
SOUTHWEST AND SOUTH CENTRAL SOUTH DAKOTA

CITY           SKY/WX    TMP DP  RH WIND       PRES   REMARKS
RAPID CTY ARPT MOSUNNY   86  59  39 N13       29.73S
PIERRE         MOSUNNY   91  55  29 SE14      29.67F HAZE
CUSTER         PTSUNNY   84  46  26 S8        29.94F
ELLSWORTH AFB  CLOUDY    90  56  31 N15       29.73S
PHILIP         SUNNY     92  63  38 S8        29.66F
PINE RIDGE     SUNNY     94  45  18 S9        29.77F
WINNER         FAIR      90  47  22 S20G28    29.76S
$$

SDZ004>011-016>023-039-040-310100-
NORTHEAST SOUTH DAKOTA

CITY           SKY/WX    TMP DP  RH WIND       PRES   REMARKS
ABERDEEN       PTSUNNY   81  70  69 S18       29.73F
WATERTOWN      MOSUNNY   75  66  73 S16       29.83S
BROOKINGS      SUNNY     73  64  73 S15       29.89F
SISSETON         N/A     80  68  66 S10       29.76S
$$

SDZ017-020-022-023-036>040-048>070-310100-
SOUTHEAST SOUTH DAKOTA

CITY           SKY/WX    TMP DP  RH WIND       PRES   REMARKS
SIOUX FALLS    CLOUDY    73  65  75 S9        29.90F
HURON          MOSUNNY   79  69  71 S17G24    29.78S
CHAMBERLAIN    MOSUNNY   82  66  58 SE9       29.77R
MITCHELL       SUNNY     79  68  69 S15G26    29.81F
YANKTON        SUNNY     75  66  73 SE13      29.87F
$$

ABBREVIATIONS USED IN REMARKS
   TC - TEMPERATURE IN CELSIUS
  WCI - WIND CHILL INDEX
   HX - HEAT INDEX
  VSB - VISIBILITY




USA.gov is the U.S. government's official web portal to all federal, state and local government web resources and services.